SWR7MZ LSZH-EDDS

Flight info

Callsign SWR7MZ
Flight time 0h 20m
Altitude 17000
Route DEGES Z1 BODAN/N0320F160 Z1 ALAGO Z4 ARSUT T125 REUTL REUTL1W
Aircraft A21N/M-SDE2E3FGHIJ1RWXY/LB1

Departure

Time 2026-02-19 11:19
Airport Zürich Airport (LSZH)

Arrival

Time 2026-02-19 11:39
Airport Stuttgart Airport (EDDS)
Time Latitude Longitude Altitude Speed Heading
2026-02-19 11:11 47.45595 8.55522 1430 ft 0 kts
2026-02-19 11:15 47.45609 8.55524 1411 ft 5 kts
2026-02-19 11:15 47.45651 8.55495 1402 ft 10 kts 299°
2026-02-19 11:15 47.45667 8.55365 1402 ft 16 kts 280°
2026-02-19 11:16 47.45696 8.55184 1404 ft 21 kts 311°
2026-02-19 11:16 47.46015 8.54940 1401 ft 32 kts 335°
2026-02-19 11:16 47.46234 8.54794 1403 ft 37 kts 335°
2026-02-19 11:17 47.46456 8.54635 1402 ft 30 kts 335°
2026-02-19 11:17 47.46653 8.54507 1402 ft 33 kts 336°
2026-02-19 11:17 47.46872 8.54368 1404 ft 35 kts 333°
2026-02-19 11:17 47.47018 8.54158 1407 ft 29 kts 282°
2026-02-19 11:18 47.46872 8.54062 1404 ft 42 kts 151°
2026-02-19 11:18 47.46372 8.54417 1407 ft 113 kts 154°
2026-02-19 11:18 47.45523 8.55010 1434 ft 153 kts 155°
2026-02-19 11:18 47.44541 8.55678 1982 ft 156 kts 155°
2026-02-19 11:19 47.43561 8.56409 2560 ft 162 kts 142°
2026-02-19 11:19 47.42786 8.57703 2953 ft 182 kts 118°
2026-02-19 11:19 47.42682 8.59631 3372 ft 204 kts 74°
2026-02-19 11:19 47.43557 8.61352 3844 ft 221 kts 32°
2026-02-19 11:20 47.44919 8.62516 4454 ft 236 kts 27°
2026-02-19 11:20 47.48007 8.65329 5452 ft 282 kts 30°
2026-02-19 11:20 47.49693 8.66929 6210 ft 291 kts 30°
2026-02-19 11:21 47.51409 8.68572 7052 ft 296 kts 30°
2026-02-19 11:21 47.53149 8.70248 7912 ft 301 kts 30°
2026-02-19 11:21 47.54917 8.71956 8763 ft 306 kts 30°
2026-02-19 11:21 47.56716 8.73696 9592 ft 311 kts 30°
2026-02-19 11:22 47.58568 8.75492 10095 ft 327 kts 31°
2026-02-19 11:22 47.60506 8.77380 10431 ft 347 kts 31°
2026-02-19 11:22 47.62577 8.79399 10751 ft 366 kts 31°
2026-02-19 11:22 47.64763 8.81539 11057 ft 386 kts 31°
2026-02-19 11:23 47.67052 8.83777 11339 ft 402 kts 31°
2026-02-19 11:23 47.69441 8.86109 11617 ft 418 kts 31°
2026-02-19 11:23 47.71899 8.88514 11988 ft 427 kts 31°
2026-02-19 11:23 47.74391 8.90960 12513 ft 430 kts 32°
2026-02-19 11:24 47.76908 8.93432 13041 ft 434 kts 32°
2026-02-19 11:24 47.81984 8.98432 14077 ft 441 kts 32°
2026-02-19 11:24 47.84551 9.00959 14579 ft 444 kts 32°
2026-02-19 11:25 47.87139 9.03508 15174 ft 448 kts 32°
2026-02-19 11:25 47.89711 9.06051 15555 ft 450 kts 32°
2026-02-19 11:25 47.92319 9.08637 15666 ft 451 kts 32°
2026-02-19 11:25 47.94934 9.11223 15678 ft 451 kts 32°
2026-02-19 11:26 47.97545 9.13812 15667 ft 450 kts 32°
2026-02-19 11:26 48.00158 9.16410 15653 ft 450 kts 32°
2026-02-19 11:26 48.02765 9.19000 15647 ft 450 kts 32°
2026-02-19 11:26 48.05375 9.21595 15643 ft 450 kts 32°
2026-02-19 11:27 48.07976 9.24184 15545 ft 445 kts 32°
2026-02-19 11:27 48.10548 9.26700 14605 ft 440 kts 29°
2026-02-19 11:27 48.13340 9.28477 13864 ft 433 kts 17°
2026-02-19 11:27 48.16199 9.29910 13378 ft 432 kts 16°
2026-02-19 11:28 48.19037 9.31343 12883 ft 429 kts 17°
2026-02-19 11:28 48.24604 9.34249 11715 ft 420 kts 17°
2026-02-19 11:28 48.27325 9.35687 11280 ft 406 kts 17°
2026-02-19 11:29 48.29936 9.37075 10871 ft 392 kts 17°
2026-02-19 11:29 48.32489 9.38428 10418 ft 385 kts 17°
2026-02-19 11:29 48.34974 9.39747 10124 ft 383 kts 17°
2026-02-19 11:29 48.37483 9.41079 9856 ft 381 kts 17°
2026-02-19 11:30 48.39975 9.42403 9533 ft 378 kts 17°
2026-02-19 11:30 48.42451 9.43723 9053 ft 375 kts 17°
2026-02-19 11:30 48.44880 9.45020 8584 ft 364 kts 17°
2026-02-19 11:30 48.47228 9.46277 8229 ft 352 kts 17°
2026-02-19 11:31 48.49511 9.47501 7703 ft 346 kts 17°
2026-02-19 11:31 48.51775 9.48710 7189 ft 344 kts 17°
2026-02-19 11:31 48.54030 9.49914 6754 ft 342 kts 17°
2026-02-19 11:31 48.56255 9.51106 6314 ft 335 kts 17°
2026-02-19 11:32 48.58416 9.52266 6030 ft 322 kts 17°
2026-02-19 11:32 48.62492 9.54458 5426 ft 303 kts 17°
2026-02-19 11:32 48.64448 9.55508 5082 ft 302 kts 17°
2026-02-19 11:33 48.66424 9.56572 4991 ft 301 kts 17°
2026-02-19 11:33 48.68421 9.57498 4995 ft 299 kts
2026-02-19 11:33 48.70449 9.57306 4874 ft 288 kts 343°
2026-02-19 11:33 48.72331 9.56486 4724 ft 276 kts 339°
2026-02-19 11:34 48.73953 9.55178 4496 ft 255 kts 311°
2026-02-19 11:34 48.74784 9.52978 4361 ft 236 kts 279°
2026-02-19 11:34 48.74668 9.50574 4012 ft 228 kts 249°
2026-02-19 11:34 48.74122 9.48369 3948 ft 221 kts 248°
2026-02-19 11:35 48.73607 9.46190 3957 ft 213 kts 250°
2026-02-19 11:35 48.73152 9.44078 3864 ft 211 kts 251°
2026-02-19 11:35 48.72723 9.41968 3562 ft 207 kts 251°
2026-02-19 11:35 48.72315 9.39908 3260 ft 199 kts 251°
2026-02-19 11:36 48.71936 9.37941 3020 ft 190 kts 251°
2026-02-19 11:36 48.71234 9.34280 2494 ft 172 kts 251°
2026-02-19 11:36 48.70927 9.32628 2259 ft 154 kts 252°
2026-02-19 11:37 48.70675 9.31157 2032 ft 140 kts 252°
2026-02-19 11:37 48.70406 9.29726 1867 ft 142 kts 252°
2026-02-19 11:37 48.70157 9.28278 1716 ft 143 kts 252°
2026-02-19 11:37 48.69960 9.27316 1608 ft 142 kts 252°
2026-02-19 11:38 48.69687 9.25896 1447 ft 142 kts 253°
2026-02-19 11:38 48.69420 9.24470 1293 ft 141 kts 253°
2026-02-19 11:38 48.69166 9.23145 1255 ft 112 kts 254°
2026-02-19 11:38 48.69001 9.22259 1258 ft 71 kts 253°
2026-02-19 11:39 48.68875 9.21615 1258 ft 58 kts 253°
2026-02-19 11:39 48.68770 9.21097 1259 ft 50 kts 256°
2026-02-19 11:39 48.68690 9.20601 1253 ft 43 kts 259°
2026-02-19 11:39 48.68681 9.20291 1251 ft 23 kts 281°
2026-02-19 11:40 48.68712 9.20116 1247 ft 7 kts 287°
2026-02-19 11:40 48.68729 9.20061 1250 ft 16 kts 303°
2026-02-19 11:40 48.68796 9.19958 1241 ft 12 kts 314°
2026-02-19 11:41 48.68868 9.19878 1249 ft 14 kts 336°
2026-02-19 11:41 48.68885 9.19812 1243 ft 8 kts 259°
2026-02-19 11:41 48.68872 9.19719 1248 ft 10 kts 252°
2026-02-19 11:41 48.68849 9.19603 1244 ft 11 kts 255°
2026-02-19 11:42 48.68844 9.19573 1251 ft 2 kts 258°
2026-02-19 11:42 48.68864 9.19541 1251 ft 6 kts 331°
2026-02-19 11:42 48.68900 9.19521 1242 ft 3 kts 342°
2026-02-19 11:42 48.68912 9.19516 1240 ft 0 kts 342°